Location: Beetenbrück
(52.8113°N, 9.5946°E)
Time: 21:55:24
(UTC+00:00)

NOSS 2-3 (C) - Pass Details

Date: 14 April 2026
Orbit: 452 x 1721 km, 63.3° (Epoch: 12 May)

Event Time Altitude Azimuth Distance (km) Brightness Sun altitude
Rises 18:53:23 0° 312° (NW) 2,876 8.7 -5.7°
Reaches altitude 10° 18:55:21 10° 312° (NW) 2,091 7.7 -5.9°
Maximum altitude 19:00:06 85° 224° (SW) 826 4.2 -6.6°
Drops below altitude 10° 19:06:42 10° 138° (SE) 2,876 6.4 -7.5°
Enters shadow 19:07:40 - 138° (SE) 3,240 6.6 -7.6°
